Zurück zum Katalog

STARLINK-36639

AktivKommunikationSSO
NORAD 67669·PAYLOAD·🇺🇸 United States

Gestartet Feb 2, 2026 von Vandenberg Space Force Base

Loading…

Nächste Überflüge (nächste 24 Stunden)

TLE

AktuellSource: CelesTrak SupGP

Epoche: Sep 15, 2026, 04:14 UTC

1 67669C 26022X   26258.17687500 -.00052014  00000+0 -16147-2 0  2585
2 67669  97.2841 289.8258 0001155  92.3068 204.2546 15.33463725    12

Verfolge STARLINK-36639 in Echtzeit mit AllMySat

Download on the App Store